This demonstration page uses our WeatherBlox Daily Observations layout. Learn more.

Hourly Observations for October 15, 2017

Temp ( °F °C ) Dew Point ( °F °C ) Humidity (%) Winds ( mph kmh ) Pressure ( in mb ) Visibility ( mi km ) Precip ( " mm )
12:54 am 00:54 Cloudy 50 10 40 4.4 68 68 NW 20 31 30.17 1022 10 16.0934 0 0
1:35 am 01:35 Mostly Cloudy 49 9.4 40 4.4 71 71 NNW 16 26 30.21 1023 10 16.0934 0 0
1:54 am 01:54 Mostly Cloudy 48 8.9 40 4.4 74 74 NW 16 26 30.19 1023 10 16.0934 0 0
2:01 am 02:01 Partly Cloudy 48 8.9 40 4.4 74 74 NW 13 20 30.24 1024 10 16.0934 0 0
2:09 am 02:09 Mostly Cloudy 48 8.9 40 4.4 74 74 NW 16 26 30.24 1024 10 16.0934 0 0
2:54 am 02:54 Cloudy 47 8.3 39 3.9 74 74 NW 14 22 30.23 1024 10 16.0934 0 0
3:50 am 03:50 Partly Cloudy 45 7 37 3 76 76 NW 10 17 30.27 1025 10 16.0934 0 0
3:54 am 03:54 Mostly Clear 45 7.2 38 3.3 77 77 NW 13 20 30.25 1024 10 16.0934 0 0
4:54 am 04:54 Clear 44 6.7 35 1.7 71 71 NNW 14 22 30.27 1025 10 16.0934 0 0
5:54 am 05:54 Clear 42 5.6 34 1.1 73 73 NNW 14 22 30.3 1026 10 16.0934 0 0
6:54 am 06:54 Clear 40 4.4 34 1.1 79 79 NW 12 19 30.31 1027 10 16.0934 0 0
7:54 am 07:54 Sunny 40 4.4 34 1.1 79 79 WNW 9 15 30.34 1027 10 16.0934 0 0
8:54 am 08:54 Sunny 42 5.6 35 1.7 76 76 WNW 9 15 30.37 1028 10 16.0934 0 0
9:54 am 09:54 Sunny 46 7.8 36 2.2 68 68 NNW 10 17 30.4 1029 10 16.0934 0 0
10:54 am 10:54 Sunny 50 10 36 2.2 59 59 NNW 12 19 30.41 1030 10 16.0934 0 0
11:54 am 11:54 Sunny 53 11.7 35 1.7 51 51 N 9 15 30.41 1030 10 16.0934 0 0
12:54 pm 12:54 Sunny 56 13.3 33 0.6 42 42 NW 9 15 30.4 1029 10 16.0934 0 0
1:54 pm 13:54 Sunny 59 15 31 -0.6 35 35 WNW 8 13 30.37 1029 10 16.0934 0 0
2:54 pm 14:54 Sunny 60 15.6 29 -1.7 31 31 W 10 17 30.35 1028 10 16.0934 0 0
3:54 pm 15:54 Sunny 62 16.7 30 -1.1 30 30 WNW 14 22 30.35 1028 10 16.0934 0 0
4:54 pm 16:54 Sunny 63 17.2 30 -1.1 29 29 NW 9 15 30.34 1027 10 16.0934 0 0
5:54 pm 17:54 Sunny 62 16.7 31 -0.6 31 31 W 6 9 30.33 1027 10 16.0934 0 0
6:54 pm 18:54 Clear 56 13.3 35 1.7 46 46 SSW 5 7 30.33 1027 10 16.0934 0 0
7:54 pm 19:54 Clear 52 11.1 36 2.2 55 55 Calm 30.34 1027 10 16.0934 0 0
8:54 pm 20:54 Clear 46 7.8 35 1.7 66 66 Calm 30.36 1028 10 16.0934 0 0
9:54 pm 21:54 Clear 45 7.2 36 2.2 71 71 Calm 30.37 1028 10 16.0934 0 0
10:54 pm 22:54 Clear 44 6.7 36 2.2 73 73 Calm 30.37 1029 10 16.0934 0 0
11:54 pm 23:54 Clear 41 5 36 2.2 82 82 Calm 30.38 1029 10 16.0934 0 0

Powered by AerisWeather